PROBA-1 1 26958U 01049B 26106.00301515 .00001257 00000+0 85316-4 0 9995 2 26958 97.9625 112.3693 0054574 334.9404 24.9175 15.07259424334251 CUTE-1 (CO-55) 1 27844U 03031E 26105.93711571 .00000183 00000+0 98247-4 0 9995 2 27844 98.6764 115.2749 0009763 13.8653 346.2793 14.24296359182816 CUBESAT XI-IV (CO-57) 1 27848U 03031J 26105.96475548 .00000153 00000+0 86362-4 0 9995 2 27848 98.6796 115.0646 0010042 31.3577 328.8198 14.23586939182529 APRIZESAT 4 1 35684U 09041D 26105.67834500 .00000404 00000+0 54978-4 0 9991 2 35684 98.1433 179.7526 0043828 162.7184 197.5533 14.83783087902099 APRIZESAT 3 1 35686U 09041F 26105.69971432 .00001339 00000+0 12098-3 0 9995 2 35686 98.1979 255.9683 0060407 273.4129 86.0182 14.96032846907033 PROBA-2 1 36037U 09059B 26105.92926049 .00000101 00000+0 34086-4 0 9993 2 36037 98.2452 290.1449 0014424 111.5639 248.7097 14.54835671872470 APRIZESAT 5 1 37792U 11044E 26105.78225864 .00000427 00000+0 61562-4 0 9990 2 37792 98.2427 37.0716 0051734 202.3570 157.5387 14.80954461789557 APRIZESAT 6 1 37793U 11044F 26105.74746733 .00000372 00000+0 60332-4 0 9993 2 37793 98.2395 14.9658 0041862 286.3875 133.6874 14.76830900787934 PROBA-V 1 39159U 13021A 26105.91684733 .00000021 00000+0 27310-4 0 9998 2 39159 98.3553 87.6114 0003463 330.5983 29.5001 14.23583497672251 APRIZESAT 7 1 39416U 13066A 26105.82879030 .00000873 00000+0 92001-4 0 9993 2 39416 97.7654 59.9722 0037280 59.3238 301.1646 14.91407372671932 APRIZESAT 8 1 39425U 13066K 26105.85471603 .00000516 00000+0 61898-4 0 9994 2 39425 97.8172 54.2188 0047172 129.8148 230.7235 14.87518087670409 BUGSAT-1 (TITA) 1 40014U 14033E 26105.96167764 .00001245 00000+0 70156-4 0 9994 2 40014 98.0412 194.9113 0029052 36.0487 324.2695 15.14967920646415 SAUDISAT 4 1 40016U 14033G 26105.35627548 .00000342 00000+0 52016-4 0 9992 2 40016 97.7488 253.6978 0043422 278.0905 81.5382 14.79452202636785 APRIZESAT 9 1 40018U 14033J 26105.83007529 .00000280 00000+0 48644-4 0 9991 2 40018 97.8958 240.5883 0067083 41.7718 318.8584 14.74144817634374 APRIZESAT 10 1 40019U 14033K 26105.88067927 .00000339 00000+0 60919-4 0 9999 2 40019 97.9548 234.2668 0080181 112.4494 248.5229 14.70822586633098 TECHDEMOSAT-1 (TDS-1) 1 40076U 14037H 26105.91704396 .00004880 00000+0 28603-3 0 9996 2 40076 98.3801 92.0174 0008026 113.4227 246.7846 15.12311580638817 TECHNOSAT 1 42829U 17042E 26105.94086615 .00001394 00000+0 10335-3 0 9993 2 42829 97.4196 266.0098 0016738 309.0490 50.9247 15.04570113477343 FLYING LAPTOP 1 42831U 17042G 26105.91869032 .00001992 00000+0 16098-3 0 9991 2 42831 97.4400 263.9715 0019027 338.1450 21.8961 15.00760887477119 HAWK-A 1 43765U 18099H 26105.71924810 .00003966 00000+0 16454-3 0 9994 2 43765 97.3980 158.7880 0036629 143.5338 216.8404 15.23826575403582 HAWK-B 1 43794U 18099AN 26105.93034178 .00003439 00000+0 15116-3 0 9998 2 43794 97.4029 158.5388 0033324 159.5423 200.7157 15.22072947403561 HAWK-C 1 43799U 18099AT 26105.89934848 .00005211 00000+0 19364-3 0 9990 2 43799 97.3958 159.5794 0042567 144.3076 216.1022 15.27117914404408 SALSAT 1 46495U 20068K 26105.92157901 .00004464 00000+0 16187-3 0 9995 2 46495 97.8861 105.2420 0010755 151.8873 208.2948 15.28876884305844 HAWK-2C 1 47502U 21006CT 26105.86742437 .00003643 00000+0 11341-3 0 9990 2 47502 97.2345 151.4353 0008608 71.8085 288.4094 15.33888412289943 HAWK-2A 1 47505U 21006CW 26105.67475561 .00003587 00000+0 11165-3 0 9994 2 47505 97.2388 151.8873 0008255 75.6257 284.5902 15.33899660289914 HAWK-2B 1 47508U 21006CZ 26105.60661286 .00004254 00000+0 13191-3 0 9994 2 47508 97.2262 150.2561 0008752 73.5934 286.6271 15.33912703289901 HAWK-3B 1 48931U 21059BE 26105.48759216 .00025474 00000+0 26437-3 0 9994 2 48931 97.6705 296.5042 0005603 188.5905 171.5258 15.64628202268033 HAWK-3C 1 48948U 21059BX 26105.48727612 .00023556 00000+0 24459-3 0 9998 2 48948 97.6843 302.0766 0005891 189.2141 170.9010 15.64629428268039 HAWK-3A 1 48957U 21059CG 26105.48717619 .00023828 00000+0 24741-3 0 9990 2 48957 97.6781 299.3326 0005644 188.3539 171.7627 15.64628075268037 HAWK-5C 1 52754U 22057Y 26105.94860372 .00011659 00000+0 21604-3 0 9999 2 52754 97.6512 261.7524 0003758 294.0414 66.0442 15.49158470216701 HAWK-5B 1 52756U 22057AA 26105.94844272 .00011688 00000+0 21665-3 0 9991 2 52756 97.6514 260.0948 0003713 286.5877 73.4965 15.49147981216704 HAWK-5A 1 52757U 22057AB 26105.94821202 .00011591 00000+0 21482-3 0 9990 2 52757 97.6514 260.9282 0004086 290.0635 70.0176 15.49153668216707 HAWK-6B 1 55324U 23011A 26105.74272015 .00002595 00000+0 11834-3 0 9998 2 55324 40.4997 356.1310 0004194 301.3273 58.7125 15.22366105178320 HAWK-6C 1 55326U 23011C 26105.08610236 .00002779 00000+0 12618-3 0 9993 2 55326 40.4988 356.8030 0004543 286.8631 73.1680 15.22363479178239 HAWK-6A 1 55327U 23011D 26105.08612982 .00002750 00000+0 12494-3 0 9995 2 55327 40.4999 358.4218 0004285 286.8582 73.1757 15.22363303178237 HAWK-7A 1 56191U 23054P 26105.92308114 .00003165 00000+0 12323-3 0 9996 2 56191 97.2783 354.8467 0001113 235.2594 124.8541 15.26708231167524 HAWK-7B 1 56193U 23054R 26105.66084592 .00003004 00000+0 11711-3 0 9992 2 56193 97.2812 352.8322 0000288 272.0656 88.0550 15.26706538167481 HAWK-7C 1 56200U 23054Y 26105.66074750 .00002948 00000+0 11498-3 0 9994 2 56200 97.2788 353.6208 0000670 215.3349 144.7846 15.26705608167483